SO5BO-13 Weather Reports


time (UTC)temp
C
wind
direction
speed
KPH
gust
KPH
rain 1hr
cm
rain 24hr
cm
rain mn
cm
humidity
%
barometer
mb
20260905223241 13 318 6.4 20.9 0.00 0.00 0.00 84 1016.5
20260905222742 13 325 11.3 20.9 0.00 0.00 0.00 84 1016.2
20260905222242 13 243 6.4 14.5 0.00 0.00 0.00 84 1016.1
20260905221742 13 262 17.7 27.4 0.00 0.00 0.00 84 1016.1
20260905221242 13 271 9.7 24.1 0.00 0.00 0.00 84 1016.1
20260905220742 13 275 4.8 20.9 0.00 0.00 0.00 84 1016.2
20260905220242 13 247 8.0 22.5 0.00 0.00 0.00 84 1016.0
20260905215742 13 267 9.7 22.5 0.00 0.00 0.00 83 1016.2
20260905215242 13 277 9.7 17.7 0.00 0.00 0.00 83 1016.1
20260905214742 13 279 4.8 12.9 0.00 0.00 0.00 83 1016.1
20260905214242 13 277 14.5 20.9 0.00 0.00 0.00 83 1016.1
20260905213742 13 270 6.4 16.1 0.00 0.00 0.00 82 1016.0
20260905213242 13 274 9.7 17.7 0.00 0.00 0.00 82 1016.1
20260905212742 14 274 16.1 24.1 0.00 0.00 0.00 82 1016.1
20260905212242 14 287 11.3 22.5 0.00 0.00 0.00 81 1015.9
20260905211742 14 273 14.5 24.1 0.00 0.00 0.00 81 1015.9
20260905211242 14 207 9.7 17.7 0.00 0.00 0.00 81 1015.9
20260905210742 14 258 12.9 22.5 0.00 0.00 0.00 80 1015.9
20260905210242 14 290 14.5 17.7 0.00 0.00 0.00 80 1015.7
20260905205742 15 242 12.9 17.7 0.00 0.00 0.00 80 1015.8
20260905205242 15 246 11.3 16.1 0.00 0.00 0.00 79 1015.7
20260905204742 15 289 9.7 29.0 0.00 0.00 0.00 79 1015.7
20260905204242 15 268 9.7 22.5 0.00 0.00 0.00 79 1015.7
20260905203742 15 298 11.3 16.1 0.00 0.00 0.00 79 1015.5
20260905203241 15 277 14.5 17.7 0.00 0.00 0.00 78 1015.4
20260905202741 15 276 17.7 29.0 0.00 0.00 0.00 78 1015.4
20260905202242 15 270 12.9 20.9 0.00 0.00 0.00 78 1015.3
20260905201742 15 287 16.1 20.9 0.00 0.00 0.00 78 1015.3
20260905201242 15 287 16.1 20.9 0.00 0.00 0.00 78 1015.2
20260905200742 15 292 14.5 22.5 0.00 0.00 0.00 78 1015.3
20260905200242 15 288 14.5 17.7 0.00 0.00 0.00 78 1015.1
20260905195742 15 274 20.9 27.4 0.00 0.00 0.00 77 1015.3
20260905195242 15 273 8.0 16.1 0.00 0.00 0.00 77 1015.4
20260905194742 15 311 8.0 20.9 0.00 0.00 0.00 77 1015.2
20260905194242 15 294 17.7 27.4 0.00 0.00 0.00 77 1015.2
20260905193742 15 274 9.7 14.5 0.00 0.00 0.00 77 1015.2
20260905193242 15 255 9.7 22.5 0.00 0.00 0.00 77 1015.1
20260905192742 15 326 14.5 22.5 0.00 0.00 0.00 77 1015.3
20260905192242 15 279 11.3 20.9 0.00 0.00 0.00 77 1015.2
20260905191742 15 284 4.8 16.1 0.00 0.00 0.00 77 1015.1
20260905191242 15 282 12.9 17.7 0.00 0.00 0.00 77 1015.2
20260905190742 15 274 8.0 12.9 0.00 0.00 0.00 77 1015.1
20260905190242 15 283 3.2 27.4 0.00 0.00 0.00 78 1015.3
20260905185742 15 243 6.4 11.3 0.00 0.00 0.00 78 1015.1
20260905185242 15 143 3.2 11.3 0.00 0.00 0.00 78 1015.1
20260905184742 15 283 3.2 4.8 0.00 0.00 0.00 79 1015.0
20260905184242 15 323 4.8 9.7 0.00 0.00 0.00 79 1015.2
20260905183742 15 250 3.2 9.7 0.00 0.00 0.00 79 1015.1
20260905183242 15 268 4.8 6.4 0.00 0.00 0.00 79 1015.2
20260905182742 15 220 3.2 4.8 0.00 0.00 0.00 78 1015.3
20260905182242 15 253 1.6 6.4 0.00 0.00 0.00 78 1015.5
20260905181742 15 299 3.2 6.4 0.00 0.00 0.00 78 1015.5
20260905181242 15 276 8.0 14.5 0.00 0.00 0.00 77 1015.4
20260905180742 15 285 1.6 3.2 0.00 0.00 0.00 77 1015.3
20260905180242 15 229 3.2 4.8 0.00 0.00 0.00 76 1015.3
20260905175742 15 218 6.4 11.3 0.00 0.00 0.00 76 1015.5
20260905175242 15 211 1.6 4.8 0.00 0.00 0.00 75 1015.2
20260905174742 16 290 0.0 3.2 0.00 0.00 0.00 75 1015.2
20260905174242 16 272 1.6 3.2 0.00 0.00 0.00 74 1015.3
20260905173742 16 212 3.2 9.7 0.00 0.00 0.00 74 1015.3
20260905173242 16 251 3.2 9.7 0.00 0.00 0.00 74 1015.0
20260905172742 16 287 4.8 12.9 0.00 0.00 0.00 73 1015.1
20260905172242 16 281 4.8 9.7 0.00 0.00 0.00 73 1015.1
20260905171742 16 236 6.4 9.7 0.00 0.00 0.00 73 1015.0
20260905171242 16 313 4.8 9.7 0.00 0.00 0.00 72 1014.8
20260905170742 16 243 1.6 9.7 0.00 0.00 0.00 72 1014.9
20260905170242 16 309 8.0 12.9 0.00 0.00 0.00 72 1014.9
20260905165742 16 299 9.7 12.9 0.00 0.00 0.00 71 1015.1
20260905165243 16 276 4.8 16.1 0.00 0.00 0.00 71 1015.2
20260905164742 16 301 4.8 12.9 0.00 0.00 0.00 71 1015.0
20260905164242 16 283 1.6 11.3 0.00 0.00 0.00 71 1015.1
20260905163742 16 320 1.6 4.8 0.00 0.00 0.00 71 1014.9
20260905163242 16 218 3.2 14.5 0.00 0.00 0.00 70 1014.9
20260905162742 16 234 6.4 11.3 0.00 0.00 0.00 70 1014.8
20260905162242 16 288 9.7 14.5 0.00 0.00 0.00 70 1014.9
20260905161742 16 206 4.8 11.3 0.00 0.00 0.00 70 1014.8
20260905161242 16 294 9.7 14.5 0.00 0.00 0.00 70 1014.7
20260905160742 16 307 8.0 16.1 0.00 0.00 0.00 70 1014.7
20260905160242 16 276 12.9 16.1 0.00 0.00 0.00 70 1014.6
20260905155742 16 252 6.4 12.9 0.00 0.00 0.00 70 1014.6
20260905155242 16 264 4.8 9.7 0.00 0.00 0.00 71 1014.6
20260905154742 16 283 11.3 20.9 0.00 0.00 0.00 71 1014.7
20260905154242 16 288 8.0 12.9 0.00 0.00 0.00 70 1014.7
20260905153742 16 287 11.3 17.7 0.00 0.00 0.00 70 1014.6
20260905153242 16 287 4.8 14.5 0.00 0.00 0.00 69 1014.7
20260905152742 16 291 8.0 12.9 0.00 0.00 0.00 68 1014.8
20260905152242 17 288 6.4 22.5 0.00 0.00 0.00 68 1014.8
20260905151742 17 252 4.8 29.0 0.00 0.00 0.00 67 1014.9
20260905151242 17 275 16.1 25.7 0.00 0.00 0.00 67 1014.8
20260905150742 17 296 11.3 27.4 0.00 0.00 0.00 67 1014.9
20260905150242 17 270 17.7 25.7 0.00 0.00 0.00 67 1014.8
20260905145742 17 292 14.5 30.6 0.00 0.00 0.00 66 1014.8
20260905145242 18 253 19.3 33.8 0.00 0.00 0.00 65 1014.9
20260905144742 18 254 6.4 33.8 0.00 0.00 0.00 62 1014.8
20260905144242 19 267 11.3 30.6 0.00 0.00 0.00 60 1014.5
20260905143742 19 281 14.5 20.9 0.00 0.00 0.00 58 1014.3
20260905143242 20 296 6.4 20.9 0.00 0.00 0.00 58 1014.1
20260905142742 20 276 12.9 27.4 0.00 0.00 0.00 57 1014.2
20260905142242 20 292 19.3 30.6 0.00 0.00 0.00 57 1014.1
20260905141742 20 261 11.3 24.1 0.00 0.00 0.00 56 1013.9
20260905141242 20 270 30.6 40.2 0.00 0.00 0.00 56 1013.9
20260905140742 20 296 9.7 22.5 0.00 0.00 0.00 56 1014.0
20260905140242 21 280 12.9 27.4 0.00 0.00 0.00 56 1013.9
20260905135742 20 283 8.0 25.7 0.00 0.00 0.00 56 1013.7
20260905135242 20 304 17.7 30.6 0.00 0.00 0.00 56 1013.9
20260905134742 21 238 6.4 22.5 0.00 0.00 0.00 55 1013.7
20260905134242 21 241 14.5 27.4 0.00 0.00 0.00 56 1013.9
20260905133742 21 295 22.5 30.6 0.00 0.00 0.00 56 1013.8
20260905133242 21 271 20.9 33.8 0.00 0.00 0.00 56 1013.7
20260905132742 21 219 14.5 30.6 0.00 0.00 0.00 56 1013.8
20260905132242 21 224 16.1 38.6 0.00 0.00 0.00 57 1013.7
20260905131742 21 268 16.1 25.7 0.00 0.00 0.00 58 1013.8
20260905131242 21 273 17.7 33.8 0.00 0.00 0.00 58 1013.9
20260905130742 21 287 17.7 43.5 0.00 0.00 0.00 58 1013.9
20260905130242 21 264 12.9 17.7 0.00 0.00 0.00 58 1013.7
20260905125742 21 295 20.9 27.4 0.00 0.00 0.00 58 1013.6
20260905125242 21 265 16.1 24.1 0.00 0.00 0.00 58 1013.9
20260905124742 21 267 19.3 25.7 0.00 0.00 0.00 58 1013.7
20260905124242 21 263 14.5 27.4 0.00 0.00 0.00 58 1013.8
20260905123742 21 306 6.4 27.4 0.00 0.00 0.00 58 1013.6
20260905123242 21 249 14.5 30.6 0.00 0.00 0.00 58 1013.8
20260905122742 21 278 12.9 30.6 0.00 0.00 0.00 57 1013.9
20260905122242 21 326 8.0 29.0 0.00 0.00 0.00 57 1013.8
20260905121742 21 246 20.9 27.4 0.00 0.00 0.00 57 1013.7
20260905121242 21 308 14.5 37.0 0.00 0.00 0.00 57 1013.7
20260905120742 21 271 9.7 17.7 0.00 0.00 0.00 58 1013.7
20260905120242 21 264 14.5 38.6 0.00 0.00 0.00 58 1013.8
20260905115742 21 268 14.5 25.7 0.00 0.00 0.00 59 1013.5
20260905115242 21 279 16.1 30.6 0.00 0.00 0.00 60 1013.8
20260905114742 21 262 17.7 24.1 0.00 0.00 0.00 61 1013.6
20260905114242 20 303 16.1 29.0 0.00 0.00 0.00 62 1013.6
20260905113742 20 278 17.7 24.1 0.00 0.00 0.00 63 1013.8
20260905113242 20 259 16.1 22.5 0.00 0.00 0.00 63 1013.7
20260905112742 20 269 19.3 25.7 0.00 0.00 0.00 64 1013.6
20260905112242 20 265 11.3 35.4 0.00 0.00 0.00 64 1013.7
20260905111742 19 258 16.1 30.6 0.00 0.00 0.00 63 1013.8
20260905111242 20 282 9.7 22.5 0.00 0.00 0.00 63 1013.6
20260905110741 20 289 14.5 24.1 0.00 0.00 0.00 63 1013.5
20260905110241 20 270 17.7 29.0 0.00 0.00 0.00 63 1013.6
20260905105742 20 290 19.3 30.6 0.00 0.00 0.00 64 1013.6
20260905105242 20 272 19.3 30.6 0.00 0.00 0.00 65 1013.6
20260905104742 19 265 11.3 37.0 0.00 0.00 0.00 65 1013.5
20260905104242 19 320 4.8 24.1 0.00 0.00 0.00 68 1013.4
20260905103742 18 272 20.9 30.6 0.00 0.00 0.00 68 1013.5
20260905103242 18 252 9.7 27.4 0.00 0.00 0.00 67 1013.5
20260905102742 18 283 9.7 24.1 0.00 0.00 0.00 66 1013.4
20260905102242 19 259 6.4 20.9 0.00 0.00 0.00 66 1013.4
20260905101742 19 290 12.9 29.0 0.00 0.00 0.00 65 1013.3
20260905101242 20 261 20.9 27.4 0.00 0.00 0.00 64 1013.0
20260905100742 20 254 9.7 29.0 0.00 0.00 0.00 64 1013.0
20260905100242 20 283 12.9 24.1 0.00 0.00 0.00 64 1013.2
20260905095742 20 274 22.5 25.7 0.00 0.00 0.00 63 1013.1
20260905095241 21 253 12.9 38.6 0.00 0.00 0.00 64 1013.0
20260905094742 21 290 16.1 25.7 0.00 0.00 0.00 65 1013.0
20260905094242 20 319 19.3 30.6 0.00 0.00 0.00 65 1012.9
20260905093742 20 283 22.5 37.0 0.00 0.00 0.00 67 1013.1
20260905093242 20 261 17.7 35.4 0.00 0.00 0.00 67 1012.9
20260905092742 20 286 24.1 29.0 0.00 0.00 0.00 68 1013.0
20260905092242 20 289 17.7 30.6 0.00 0.00 0.00 66 1013.1
20260905091742 20 270 16.1 37.0 0.00 0.00 0.00 66 1012.9
20260905091242 20 283 8.0 35.4 0.00 0.00 0.00 66 1012.8
20260905090742 20 289 25.7 33.8 0.00 0.00 0.00 67 1012.8
20260905090242 20 288 12.9 30.6 0.00 0.00 0.00 67 1012.6
20260905085742 20 291 9.7 48.3 0.00 0.00 0.00 68 1012.7
20260905085242 20 291 9.7 33.8 0.00 0.00 0.00 70 1012.7
20260905084742 19 253 11.3 24.1 0.00 0.00 0.00 71 1012.7
20260905084243 19 273 16.1 33.8 0.00 0.00 0.00 71 1012.7
20260905083742 19 267 24.1 33.8 0.00 0.00 0.00 71 1012.5
20260905083242 19 298 19.3 38.6 0.00 0.00 0.00 71 1012.6
20260905082742 19 249 17.7 43.5 0.00 0.00 0.00 73 1012.6
20260905082242 18 281 9.7 29.0 0.00 0.00 0.00 75 1012.6
20260905081742 18 291 16.1 29.0 0.00 0.00 0.00 75 1012.5
20260905081242 18 277 24.1 33.8 0.00 0.00 0.00 76 1012.7
20260905080742 18 255 16.1 33.8 0.00 0.00 0.00 77 1012.5
20260905080242 18 287 16.1 29.0 0.00 0.00 0.00 76 1012.4
20260905075742 18 260 19.3 40.2 0.00 0.00 0.00 76 1012.5
20260905075242 18 312 20.9 41.8 0.00 0.00 0.00 76 1012.5
20260905074742 18 321 6.4 22.5 0.00 0.00 0.00 77 1012.5
20260905074242 18 305 17.7 29.0 0.00 0.00 0.00 77 1012.3
20260905073742 18 296 33.8 40.2 0.00 0.00 0.00 78 1012.4
20260905073242 18 259 16.1 27.4 0.00 0.00 0.00 79 1012.1
20260905072742 18 112 19.3 35.4 0.00 0.00 0.00 81 1012.4
20260905072242 17 285 17.7 24.1 0.00 0.00 0.00 81 1012.2
20260905071742 17 322 16.1 27.4 0.00 0.00 0.00 83 1012.2
20260905071242 17 275 12.9 29.0 0.00 0.00 0.00 86 1012.1
20260905070742 17 279 6.4 25.7 0.00 0.00 0.00 86 1011.9
20260905070242 17 300 22.5 33.8 0.00 0.00 0.00 87 1011.8
20260905065742 17 293 14.5 20.9 0.00 0.00 0.00 87 1011.8
20260905065242 17 271 17.7 33.8 0.00 0.00 0.00 87 1011.8
20260905064742 17 296 17.7 37.0 0.00 0.00 0.00 87 1011.6
20260905064242 17 275 11.3 29.0 0.00 0.00 0.00 87 1011.5
20260905063742 17 271 17.7 35.4 0.00 0.00 0.00 87 1011.4
20260905063242 17 292 9.7 24.1 0.00 0.00 0.00 88 1011.3
20260905062742 17 304 17.7 29.0 0.00 0.00 0.00 88 1011.4
20260905062242 16 286 4.8 14.5 0.00 0.00 0.00 89 1011.3
20260905061742 16 261 6.4 22.5 0.00 0.00 0.00 89 1011.3
20260905061242 16 281 14.5 20.9 0.00 0.00 0.00 89 1011.3
20260905060742 16 272 14.5 16.1 0.00 0.00 0.00 89 1011.2
20260905060242 16 295 11.3 20.9 0.00 0.00 0.00 90 1011.2
20260905055742 16 257 12.9 22.5 0.00 0.00 0.00 90 1011.3
20260905055242 16 279 6.4 29.0 0.00 0.00 0.00 89 1011.1
20260905054742 16 261 12.9 29.0 0.00 0.00 0.00 90 1011.0
20260905054242 16 279 6.4 17.7 0.00 0.00 0.00 90 1011.0
20260905053742 16 259 11.3 16.1 0.00 0.00 0.00 90 1011.0
20260905053242 15 255 8.0 17.7 0.00 0.00 0.00 90 1011.0
20260905052742 15 271 9.7 20.9 0.00 0.00 0.00 90 1010.8
20260905052242 15 296 11.3 17.7 0.00 0.00 0.00 89 1010.9
20260905051742 15 278 17.7 20.9 0.00 0.00 0.00 89 1010.9
20260905051242 15 292 6.4 25.7 0.00 0.00 0.00 89 1010.9
20260905050742 15 269 4.8 20.9 0.00 0.00 0.00 89 1010.8
20260905050242 15 290 11.3 20.9 0.00 0.00 0.00 89 1010.7
20260905045742 15 269 11.3 16.1 0.00 0.00 0.00 89 1010.6
20260905045242 15 287 14.5 24.1 0.00 0.00 0.00 89 1010.5
20260905044742 15 279 11.3 22.5 0.00 0.00 0.00 89 1010.4
20260905044242 15 273 17.7 24.1 0.00 0.00 0.00 89 1010.4
20260905043742 15 282 12.9 20.9 0.00 0.00 0.00 89 1010.1
20260905043242 15 229 14.5 20.9 0.00 0.00 0.00 89 1010.4
20260905042742 15 259 8.0 20.9 0.00 0.00 0.00 89 1010.4
20260905042242 15 257 12.9 22.5 0.00 0.00 0.00 89 1010.2
20260905041742 16 281 9.7 25.7 0.00 0.00 0.00 89 1010.0
20260905041242 16 278 19.3 25.7 0.00 0.00 0.00 89 1009.9
20260905040742 16 318 17.7 24.1 0.00 0.00 0.00 89 1009.7
20260905040242 16 276 20.9 37.0 0.00 0.00 0.00 89 1009.6
20260905035742 16 262 16.1 48.3 0.00 0.00 0.00 90 1009.6
20260905035242 16 268 19.3 29.0 0.00 0.00 0.00 91 1009.4
20260905034742 16 273 19.3 29.0 0.00 0.00 0.00 91 1009.2
20260905034242 16 277 16.1 25.7 0.00 0.00 0.00 91 1009.2
20260905033742 16 271 14.5 20.9 0.00 0.00 0.00 92 1008.8
20260905033242 16 248 8.0 29.0 0.00 0.00 0.00 92 1009.0
20260905032742 16 290 22.5 29.0 0.00 0.00 0.00 92 1008.7
20260905032242 16 274 11.3 25.7 0.00 0.00 0.00 92 1008.6
20260905031742 16 268 19.3 25.7 0.00 0.00 0.00 92 1008.8
20260905031242 16 253 12.9 37.0 0.00 0.00 0.00 92 1008.4
20260905030742 16 278 17.7 30.6 0.00 0.00 0.00 92 1008.3
20260905030242 16 294 16.1 25.7 0.00 0.00 0.00 92 1008.3
20260905025742 16 248 14.5 33.8 0.00 0.00 0.00 92 1008.6
20260905025242 16 263 14.5 27.4 0.00 0.00 0.00 92 1008.5
20260905024742 16 250 14.5 29.0 0.00 0.00 0.00 92 1008.3
20260905024242 16 285 9.7 30.6 0.00 0.00 0.00 93 1008.6
20260905023742 16 286 9.7 17.7 0.00 0.00 0.00 92 1008.2
20260905023242 16 269 14.5 22.5 0.00 0.00 0.00 93 1008.2
20260905022742 17 260 19.3 24.1 0.00 0.00 0.00 92 1008.4
20260905022242 17 279 11.3 17.7 0.00 0.00 0.00 92 1008.3
20260905021742 17 261 16.1 22.5 0.00 0.00 0.00 92 1008.5
20260905021242 17 260 9.7 24.1 0.00 0.00 0.00 92 1008.1
20260905020742 17 276 16.1 30.6 0.00 0.00 0.00 92 1008.1
20260905020242 17 297 8.0 16.1 0.00 0.00 0.00 92 1008.0
20260905015742 17 285 11.3 20.9 0.00 0.00 0.00 92 1008.1
20260905015242 17 296 14.5 30.6 0.00 0.00 0.00 92 1008.0
20260905014742 17 283 12.9 22.5 0.00 0.00 0.00 92 1008.0
20260905014242 17 290 9.7 22.5 0.00 0.00 0.00 92 1007.7
20260905013742 17 259 11.3 24.1 0.00 0.00 0.00 92 1007.7
20260905013242 17 259 16.1 29.0 0.00 0.00 0.00 92 1007.9
20260905012742 17 281 12.9 22.5 0.00 0.00 0.00 92 1007.7
20260905012242 17 216 11.3 29.0 0.00 0.00 0.00 92 1007.8
20260905011742 17 275 14.5 25.7 0.00 0.00 0.00 92 1007.7
20260905011242 17 292 17.7 25.7 0.00 0.00 0.00 92 1007.8
20260905010742 17 229 24.1 30.6 0.00 0.00 0.00 92 1007.7
20260905010242 17 279 6.4 22.5 0.00 0.00 0.00 92 1007.6
20260905005742 17 273 9.7 22.5 0.00 0.00 0.00 93 1007.5
20260905005242 17 282 12.9 24.1 0.00 0.00 0.00 93 1007.3
20260905004742 17 266 4.8 24.1 0.00 0.00 0.00 93 1007.2
20260905004242 17 284 12.9 33.8 0.00 0.00 0.00 93 1007.1
20260905003742 17 280 12.9 27.4 0.00 0.00 0.00 93 1007.2
20260905003242 17 291 17.7 33.8 0.00 0.00 0.00 94 1007.0
20260905002742 17 149 9.7 29.0 0.00 0.00 0.00 94 1006.9
20260905002242 17 300 9.7 33.8 0.00 0.00 0.00 94 1006.8
20260905001742 17 263 8.0 29.0 0.00 0.00 0.00 95 1006.7
20260905001242 17 310 11.3 20.9 0.00 0.00 0.00 95 1006.8
20260905000742 17 290 6.4 17.7 0.00 0.00 0.00 95 1006.8
20260905000242 17 197 14.5 30.6 0.00 0.00 0.00 95 1006.8
20260904235742 17 174 9.7 14.5 0.00 0.00 0.00 95 1006.8
20260904235242 17 276 14.5 25.7 0.00 0.00 0.00 95 1006.8
20260904234742 17 296 8.0 16.1 0.00 0.00 0.00 95 1006.7
20260904234242 17 293 11.3 17.7 0.00 0.00 0.00 95 1006.7
20260904233742 17 312 4.8 24.1 0.00 0.00 0.00 95 1006.8
20260904233242 17 273 6.4 22.5 0.00 0.00 0.00 95 1006.8
20260904232742 17 290 4.8 9.7 0.00 0.00 0.00 95 1006.8
20260904232242 17 97 4.8 16.1 0.00 0.00 0.00 95 1006.5
20260904231742 17 292 8.0 16.1 0.00 0.00 0.00 95 1006.6
20260904231242 17 285 9.7 16.1 0.00 0.00 0.00 95 1006.7
20260904230742 18 247 11.3 25.7 0.00 0.00 0.00 95 1006.4
20260904230242 18 225 9.7 20.9 0.00 0.00 0.00 95 1006.8
20260904225742 18 252 12.9 17.7 0.00 0.00 0.00 95 1006.7
20260904225242 17 294 11.3 20.9 0.00 0.00 0.00 95 1006.8
20260904224742 17 300 8.0 12.9 0.00 0.00 0.00 95 1006.7
20260904224242 17 244 1.6 11.3 0.00 0.00 0.00 95 1006.5
20260904223742 17 255 9.7 11.3 0.00 0.00 0.00 95 1006.5